Home   Weather   38°00'S, 145°13'E   Past weeks
Flag for Australia

Past Weather in 38°00'S, 145°13'E, Australia — Yesterday and Last 2 Weeks

Now
57 °F

Passing clouds.


Feels Like: 56 °F
Forecast: 72 / 52 °F
Wind: 7 mph from West

Location: Melbourne Airport

Current Time: Mar 26, 2019 at 11:52:38 pm

Latest Report: Mar 26, 2019 at 11:00 pm


Visibility: N/A

Pressure: 30.24 "Hg

Humidity: 63%

Dew Point: 45 °F

Location of 38°00'S, 145°13'ELocation

Past Weather in 38°00'S, 145°13'E — Graph

°F

38°00'S, 145°13'E Temperature Yesterday

Maximum temperature yesterday: 73 °F (at 12:00 am)
Minimum temperature yesterday: 50 °F (at 10:30 pm)
Average temperature yesterday: 62 °F

High & Low Weather Summary for the Past Weeks

 TemperatureHumidityPressure
High88 °F (Mar 22, 2:30 pm)100% (Mar 17, 7:10 am)30.24 "Hg (Mar 17, 7:10 am)
Low46 °F (Mar 13, 1:00 am)22% (Mar 25, 5:33 pm)29.53 "Hg (Mar 24, 10:00 pm)
Average66 °F66%29.96 "Hg
* Reported Mar 11 10:00 pm — Mar 26 10:30 pm, 38°00'S, 145°13'E. Weather by CustomWeather, © 2019

Note: Actual official high and low records may vary slightly from our data, if they occured in-between our weather recording intervals... More about our weather records

Advertising

38°00'S, 145°13'E Weather History for the Previous 24 Hours

Scroll right to see more
 ConditionsComfort  
Time TempWeatherWind HumidityBarometerVisibility
10:30 pm
Tue, Mar 26
55 °FPassing clouds.3 mph72%30.24 "HgN/A
10:00 pm55 °FPassing clouds.6 mph72%30.24 "HgN/A
9:30 pm57 °FPassing clouds.8 mph67%30.21 "HgN/A
9:00 pm57 °FPassing clouds.7 mph67%30.21 "HgN/A
8:30 pm59 °FPassing clouds.12 mph63%30.18 "HgN/A
8:00 pm59 °FPassing clouds.13 mph68%30.18 "HgN/A
7:30 pm61 °FPassing clouds.14 mph59%30.15 "HgN/A
7:00 pm61 °FPassing clouds.16 mph63%30.15 "HgN/A
6:30 pm63 °FPassing clouds.16 mph56%30.15 "HgN/A
6:00 pm64 °FSunny.15 mph46%30.12 "Hg10 mi
5:30 pm66 °FPassing clouds.13 mph40%30.12 "HgN/A
5:00 pm68 °FSunny.17 mph26%30.09 "Hg10 mi
4:30 pm70 °FSunny.15 mph25%30.09 "Hg10 mi
4:00 pm68 °FSunny.14 mph26%30.09 "Hg10 mi
3:30 pm70 °FSunny.16 mph27%30.09 "Hg10 mi
3:00 pm70 °FSunny.17 mph25%30.12 "Hg10 mi
2:30 pm68 °FSunny.16 mph26%30.12 "Hg10 mi
2:00 pm68 °FPassing clouds.15 mph26%30.12 "HgN/A
1:30 pm66 °FSunny.15 mph28%30.12 "Hg10 mi
1:00 pm64 °FSunny.20 mph32%30.12 "Hg10 mi
12:30 pm64 °FSunny.18 mph34%30.12 "Hg10 mi
12:00 pm64 °FPartly sunny.17 mph32%30.12 "Hg10 mi
11:55 am66 °FSunny.20 mph32%30.12 "Hg10 mi
11:00 am63 °FScattered clouds.20 mph34%30.09 "HgN/A
10:30 am63 °FScattered clouds.16 mph39%30.09 "HgN/A
10:00 am59 °FScattered clouds.18 mph48%30.09 "HgN/A
9:30 am57 °FScattered clouds.20 mph51%30.07 "HgN/A
9:00 am55 °FPassing clouds.20 mph55%30.07 "HgN/A
8:30 am55 °FPassing clouds.17 mph55%30.07 "HgN/A
8:00 am54 °FScattered clouds.17 mph54%30.04 "HgN/A
7:30 am54 °FSunny.10 mph54%30.04 "Hg10 mi
7:00 am52 °FPassing clouds.13 mph58%30.01 "HgN/A
6:30 am52 °FPassing clouds.10 mph58%30.01 "HgN/A
6:00 am52 °FClear.9 mph58%30.01 "Hg10 mi
5:30 am52 °FClear.10 mph58%29.98 "Hg10 mi
5:00 am52 °FPassing clouds.12 mph54%29.98 "HgN/A
4:30 am52 °FPassing clouds.10 mph54%29.98 "HgN/A
4:00 am52 °FPassing clouds.12 mph54%29.98 "HgN/A
3:30 am52 °FPassing clouds.8 mph58%29.98 "HgN/A
3:00 am54 °FPassing clouds.9 mph51%29.98 "HgN/A
2:30 am52 °FPassing clouds.9 mph54%29.98 "HgN/A
2:00 am52 °FPassing clouds.9 mph50%29.98 "HgN/A
1:30 am52 °FPassing clouds.10 mph50%29.98 "HgN/A
1:00 am52 °FClear.12 mph47%29.98 "Hg10 mi
12:30 am52 °FClear.13 mph47%29.98 "Hg10 mi
12:00 am52 °FClear.10 mph44%29.95 "Hg10 mi
11:30 pm
Mon, Mar 25
52 °FClear.10 mph44%29.95 "Hg10 mi
11:00 pm52 °FClear.8 mph44%29.95 "Hg10 mi
Weather by CustomWeather, © 2019

See weather overview